| time (UTC) | temp C | wind direction | speed KPH | gust KPH | rain 1hr cm | rain 24hr cm | rain mn cm | humidity % | barometer mb |
| 20260507095850 | 11 | 360 | 8.0 | 19.3 | 0.00 | 0.33 | 0.00 | 72 | 1013.0 |
| 20260507094849 | 11 | 360 | 4.8 | 17.7 | 0.00 | 0.33 | 0.00 | 76 | 1012.8 |
| 20260507093849 | 10 | 360 | 6.4 | 16.1 | 0.00 | 0.33 | 0.00 | 77 | 1012.8 |
| 20260507092849 | 10 | 360 | 3.2 | 9.7 | 0.00 | 0.33 | 0.00 | 77 | 1012.8 |
| 20260507091849 | 10 | 360 | 3.2 | 14.5 | 0.00 | 0.33 | 0.00 | 78 | 1012.6 |
| 20260507090849 | 10 | 360 | 4.8 | 17.7 | 0.00 | 0.33 | 0.00 | 80 | 1012.6 |
| 20260507085849 | 9 | 360 | 6.4 | 16.1 | 0.00 | 0.38 | 0.00 | 81 | 1012.6 |
| 20260507084849 | 9 | 360 | 8.0 | 12.9 | 0.00 | 0.38 | 0.00 | 82 | 1012.6 |
| 20260507082849 | 9 | 360 | 3.2 | 9.7 | 0.00 | 0.38 | 0.00 | 84 | 1012.4 |
| 20260507081850 | 8 | 360 | 3.2 | 12.9 | 0.00 | 0.38 | 0.00 | 83 | 1012.4 |
| 20260507075849 | 8 | 360 | 3.2 | 8.0 | 0.00 | 0.48 | 0.00 | 85 | 1012.1 |
| 20260507074849 | 8 | 360 | 4.8 | 12.9 | 0.00 | 0.48 | 0.00 | 85 | 1011.9 |
| 20260507073848 | 8 | 360 | 3.2 | 9.7 | 0.00 | 0.48 | 0.00 | 87 | 1012.0 |
| 20260507072849 | 8 | 360 | 3.2 | 6.4 | 0.00 | 0.48 | 0.00 | 86 | 1011.8 |
| 20260507071849 | 8 | 360 | 3.2 | 9.7 | 0.00 | 0.48 | 0.00 | 87 | 1011.8 |
| 20260507070849 | 8 | 360 | 3.2 | 9.7 | 0.00 | 0.48 | 0.00 | 87 | 1011.6 |
| 20260507065848 | 8 | 360 | 1.6 | 6.4 | 0.00 | 0.48 | 0.00 | 89 | 1011.5 |
| 20260507064849 | 7 | 360 | 3.2 | 12.9 | 0.00 | 0.48 | 0.00 | 90 | 1011.5 |
| 20260507063849 | 7 | 360 | 3.2 | 9.7 | 0.00 | 0.48 | 0.00 | 90 | 1011.4 |
| 20260507062849 | 7 | 360 | 3.2 | 16.1 | 0.00 | 0.48 | 0.00 | 91 | 1011.3 |
| 20260507061848 | 7 | 360 | 8.0 | 12.9 | 0.00 | 0.48 | 0.00 | 91 | 1011.1 |
| 20260507060849 | 7 | 360 | 1.6 | 4.8 | 0.00 | 0.48 | 0.00 | 91 | 1010.9 |
| 20260507055849 | 7 | 360 | 6.4 | 8.0 | 0.00 | 0.48 | 0.00 | 91 | 1010.8 |
| 20260507054848 | 7 | 360 | 3.2 | 6.4 | 0.00 | 0.48 | 0.00 | 92 | 1010.7 |
| 20260507053849 | 7 | 360 | 1.6 | 8.0 | 0.00 | 0.48 | 0.00 | 92 | 1010.5 |
| 20260507052848 | 7 | 360 | 6.4 | 8.0 | 0.00 | 0.48 | 0.00 | 92 | 1010.4 |
| 20260507051848 | 7 | 360 | 1.6 | 8.0 | 0.00 | 0.48 | 0.00 | 92 | 1010.2 |
| 20260507050849 | 7 | 360 | 4.8 | 8.0 | 0.00 | 0.48 | 0.00 | 92 | 1010.1 |
| 20260507045848 | 7 | 360 | 4.8 | 8.0 | 0.00 | 0.51 | 0.00 | 92 | 1010.1 |
| 20260507044848 | 7 | 360 | 3.2 | 9.7 | 0.00 | 0.51 | 0.00 | 92 | 1009.9 |
| 20260507043848 | 7 | 360 | 1.6 | 6.4 | 0.00 | 0.51 | 0.00 | 92 | 1009.7 |
| 20260507042848 | 7 | 360 | 3.2 | 8.0 | 0.00 | 0.51 | 0.00 | 92 | 1009.6 |
| 20260507041848 | 7 | 360 | 0.0 | 4.8 | 0.00 | 0.51 | 0.00 | 92 | 1009.6 |
| 20260507040848 | 7 | 360 | 3.2 | 8.0 | 0.00 | 0.51 | 0.00 | 92 | 1009.4 |
| 20260507035848 | 7 | 360 | 3.2 | 6.4 | 0.00 | 0.51 | 0.00 | 92 | 1009.3 |
| 20260507034848 | 7 | 360 | 6.4 | 12.9 | 0.00 | 0.51 | 0.00 | 92 | 1009.4 |
| 20260507033849 | 7 | 360 | 11.3 | 17.7 | 0.00 | 0.51 | 0.00 | 92 | 1009.3 |
| 20260507032848 | 7 | 360 | 3.2 | 6.4 | 0.00 | 0.51 | 0.00 | 92 | 1009.4 |
| 20260507031847 | 7 | 360 | 1.6 | 4.8 | 0.00 | 0.51 | 0.00 | 92 | 1009.3 |
| 20260507030848 | 7 | 360 | 1.6 | 6.4 | 0.00 | 0.51 | 0.00 | 92 | 1009.3 |
| 20260507025848 | 7 | 360 | 1.6 | 8.0 | 0.00 | 0.51 | 0.00 | 92 | 1009.3 |
| 20260507024847 | 7 | 360 | 3.2 | 9.7 | 0.00 | 0.51 | 0.00 | 93 | 1009.2 |
| 20260507023847 | 7 | 360 | 1.6 | 6.4 | 0.00 | 0.51 | 0.00 | 93 | 1009.2 |
| 20260507022847 | 7 | 360 | 3.2 | 8.0 | 0.00 | 0.51 | 0.00 | 93 | 1009.1 |
| 20260507021848 | 7 | 360 | 1.6 | 8.0 | 0.00 | 0.51 | 0.00 | 93 | 1009.1 |
| 20260507020847 | 7 | 360 | 1.6 | 9.7 | 0.00 | 0.51 | 0.00 | 93 | 1009.1 |
| 20260507015848 | 7 | 360 | 3.2 | 12.9 | 0.00 | 0.51 | 0.00 | 93 | 1009.0 |
| 20260507014848 | 7 | 360 | 3.2 | 9.7 | 0.00 | 0.51 | 0.00 | 93 | 1009.0 |
| 20260507013847 | 7 | 360 | 3.2 | 9.7 | 0.00 | 0.51 | 0.00 | 92 | 1009.0 |
| 20260507012848 | 7 | 360 | 4.8 | 9.7 | 0.00 | 0.51 | 0.00 | 92 | 1008.9 |
| 20260507011847 | 7 | 360 | 6.4 | 8.0 | 0.00 | 0.51 | 0.00 | 92 | 1008.8 |
| 20260507010847 | 7 | 360 | 3.2 | 9.7 | 0.00 | 0.51 | 0.00 | 92 | 1008.7 |
| 20260507005847 | 7 | 360 | 3.2 | 9.7 | 0.00 | 0.51 | 0.00 | 92 | 1008.6 |
| 20260507004847 | 7 | 360 | 3.2 | 8.0 | 0.00 | 0.51 | 0.00 | 91 | 1008.6 |
| 20260507003847 | 7 | 360 | 4.8 | 6.4 | 0.00 | 0.51 | 0.00 | 91 | 1008.5 |
| 20260507002847 | 7 | 360 | 0.0 | 6.4 | 0.00 | 0.51 | 0.00 | 91 | 1008.5 |
| 20260507001847 | 7 | 360 | 3.2 | 6.4 | 0.00 | 0.51 | 0.00 | 91 | 1008.4 |
| 20260507000847 | 7 | 360 | 1.6 | 8.0 | 0.00 | 0.51 | 0.00 | 91 | 1008.4 |
| 20260506235847 | 7 | 360 | 1.6 | 6.4 | 0.00 | 0.51 | 0.00 | 91 | 1008.5 |
| 20260506234847 | 7 | 360 | 1.6 | 8.0 | 0.00 | 0.51 | 0.00 | 91 | 1008.4 |
| 20260506233847 | 7 | 360 | 0.0 | 9.7 | 0.00 | 0.51 | 0.00 | 91 | 1008.4 |
| 20260506232847 | 7 | 360 | 4.8 | 8.0 | 0.00 | 0.51 | 0.00 | 91 | 1008.3 |
| 20260506231847 | 7 | 360 | 1.6 | 4.8 | 0.00 | 0.51 | 0.00 | 91 | 1008.2 |
| 20260506230848 | 7 | 360 | 6.4 | 9.7 | 0.00 | 0.51 | 0.00 | 91 | 1008.2 |
| 20260506225846 | 7 | 360 | 0.0 | 8.0 | 0.00 | 0.71 | 0.00 | 91 | 1008.1 |
| 20260506224847 | 7 | 360 | 4.8 | 9.7 | 0.00 | 0.71 | 0.00 | 91 | 1008.1 |
| 20260506223847 | 7 | 360 | 4.8 | 12.9 | 0.00 | 0.71 | 0.00 | 91 | 1007.9 |
| 20260506222846 | 7 | 360 | 1.6 | 14.5 | 0.00 | 0.71 | 0.00 | 92 | 1007.8 |
| 20260506221846 | 7 | 360 | 3.2 | 12.9 | 0.00 | 0.71 | 0.00 | 92 | 1007.7 |
| 20260506220846 | 7 | 360 | 4.8 | 14.5 | 0.00 | 0.71 | 0.00 | 91 | 1007.6 |
| 20260506215847 | 8 | 360 | 8.0 | 14.5 | 0.00 | 1.09 | 1.09 | 91 | 1007.6 |
| 20260506214846 | 8 | 360 | 4.8 | 14.5 | 0.00 | 1.09 | 1.09 | 91 | 1007.6 |
| 20260506213847 | 8 | 360 | 6.4 | 9.7 | 0.00 | 1.09 | 1.09 | 91 | 1007.6 |
| 20260506212846 | 8 | 360 | 1.6 | 12.9 | 0.00 | 1.09 | 1.09 | 91 | 1007.6 |
| 20260506211847 | 8 | 360 | 3.2 | 12.9 | 0.00 | 1.09 | 1.09 | 91 | 1007.5 |
| 20260506210846 | 8 | 360 | 6.4 | 14.5 | 0.00 | 1.09 | 1.09 | 91 | 1007.3 |
| 20260506205846 | 8 | 360 | 4.8 | 8.0 | 0.00 | 1.17 | 1.09 | 91 | 1007.2 |
| 20260506204846 | 8 | 360 | 1.6 | 4.8 | 0.00 | 1.17 | 1.09 | 91 | 1007.1 |
| 20260506203846 | 8 | 360 | 3.2 | 4.8 | 0.00 | 1.17 | 1.09 | 91 | 1007.1 |
| 20260506202846 | 8 | 360 | 0.0 | 6.4 | 0.00 | 1.17 | 1.09 | 91 | 1007.0 |
| 20260506201847 | 8 | 360 | 3.2 | 6.4 | 0.00 | 1.17 | 1.09 | 91 | 1006.9 |
| 20260506200846 | 8 | 360 | 3.2 | 8.0 | 0.00 | 1.17 | 1.09 | 91 | 1006.9 |
| 20260506195846 | 8 | 360 | 4.8 | 9.7 | 0.00 | 1.32 | 1.09 | 91 | 1006.8 |
| 20260506194845 | 8 | 360 | 3.2 | 12.9 | 0.00 | 1.32 | 1.09 | 91 | 1006.8 |
| 20260506193845 | 8 | 360 | 3.2 | 9.7 | 0.00 | 1.32 | 1.09 | 91 | 1006.7 |
| 20260506192846 | 8 | 360 | 4.8 | 12.9 | 0.00 | 1.32 | 1.09 | 91 | 1006.6 |
| 20260506191846 | 8 | 360 | 8.0 | 14.5 | 0.00 | 1.32 | 1.09 | 91 | 1006.6 |
| 20260506190846 | 8 | 360 | 3.2 | 12.9 | 0.00 | 1.32 | 1.09 | 91 | 1006.6 |
| 20260506185845 | 8 | 360 | 4.8 | 14.5 | 0.00 | 1.55 | 1.09 | 91 | 1006.5 |
| 20260506184846 | 8 | 360 | 3.2 | 9.7 | 0.00 | 1.55 | 1.09 | 91 | 1006.2 |
| 20260506183845 | 8 | 360 | 4.8 | 12.9 | 0.00 | 1.55 | 1.09 | 91 | 1006.2 |
| 20260506182846 | 8 | 360 | 1.6 | 9.7 | 0.00 | 1.55 | 1.09 | 90 | 1006.0 |
| 20260506181846 | 8 | 360 | 3.2 | 9.7 | 0.00 | 1.55 | 1.09 | 90 | 1006.1 |
| 20260506180845 | 8 | 360 | 4.8 | 12.9 | 0.00 | 1.55 | 1.09 | 90 | 1006.0 |
| 20260506175846 | 8 | 360 | 3.2 | 9.7 | 0.00 | 1.65 | 1.09 | 90 | 1005.9 |
| 20260506174845 | 8 | 360 | 4.8 | 12.9 | 0.00 | 1.65 | 1.09 | 90 | 1005.8 |
| 20260506173845 | 9 | 360 | 0.0 | 8.0 | 0.00 | 1.65 | 1.09 | 90 | 1005.6 |
| 20260506172845 | 9 | 360 | 3.2 | 9.7 | 0.00 | 1.65 | 1.09 | 90 | 1005.4 |
| 20260506171845 | 9 | 360 | 3.2 | 12.9 | 0.00 | 1.65 | 1.09 | 90 | 1005.2 |
| 20260506170845 | 9 | 360 | 6.4 | 8.0 | 0.00 | 1.65 | 1.09 | 91 | 1005.2 |
| 20260506165845 | 9 | 360 | 1.6 | 6.4 | 0.00 | 1.88 | 1.09 | 91 | 1005.1 |
| 20260506164845 | 9 | 360 | 4.8 | 9.7 | 0.00 | 1.88 | 1.09 | 90 | 1005.2 |
| 20260506163845 | 10 | 360 | 4.8 | 12.9 | 0.00 | 1.88 | 1.09 | 90 | 1005.1 |
| 20260506162845 | 10 | 360 | 3.2 | 9.7 | 0.00 | 1.88 | 1.09 | 90 | 1005.1 |
| 20260506162525 | 10 | 360 | 4.8 | 9.7 | 0.00 | 1.88 | 1.09 | 90 | 1005.0 |
| 20260506160845 | 10 | 360 | 1.6 | 8.0 | 0.00 | 1.88 | 1.09 | 90 | 1004.9 |
| 20260506155844 | 10 | 360 | 4.8 | 12.9 | 0.00 | 2.31 | 1.09 | 90 | 1004.8 |
| 20260506154845 | 10 | 360 | 4.8 | 12.9 | 0.00 | 2.31 | 1.09 | 90 | 1004.9 |
| 20260506153845 | 10 | 360 | 4.8 | 17.7 | 0.00 | 2.31 | 1.09 | 90 | 1004.7 |
| 20260506152844 | 10 | 360 | 8.0 | 16.1 | 0.00 | 2.31 | 1.09 | 90 | 1004.6 |
| 20260506151844 | 10 | 360 | 6.4 | 14.5 | 0.00 | 2.31 | 1.09 | 92 | 1004.6 |
| 20260506150844 | 10 | 360 | 6.4 | 14.5 | 0.00 | 2.31 | 1.09 | 91 | 1004.5 |
| 20260506145844 | 10 | 360 | 3.2 | 12.9 | 0.00 | 2.31 | 1.09 | 91 | 1004.5 |
| 20260506144844 | 11 | 360 | 6.4 | 17.7 | 0.00 | 2.31 | 1.09 | 91 | 1004.5 |
| 20260506143845 | 11 | 360 | 9.7 | 16.1 | 0.00 | 2.31 | 1.09 | 90 | 1004.3 |
| 20260506142844 | 11 | 360 | 4.8 | 9.7 | 0.00 | 2.31 | 1.09 | 91 | 1004.2 |
| 20260506141844 | 11 | 360 | 3.2 | 4.8 | 0.00 | 2.31 | 1.09 | 90 | 1004.2 |
| 20260506140844 | 11 | 360 | 1.6 | 9.7 | 0.03 | 2.31 | 1.09 | 91 | 1004.1 |
| 20260506135845 | 11 | 360 | 1.6 | 4.8 | 0.05 | 2.31 | 1.09 | 92 | 1004.1 |
| 20260506134844 | 11 | 360 | 1.6 | 14.5 | 0.08 | 2.31 | 1.09 | 91 | 1004.0 |
| 20260506133844 | 11 | 360 | 4.8 | 9.7 | 0.15 | 2.31 | 1.09 | 92 | 1004.0 |
| 20260506132844 | 11 | 360 | 4.8 | 14.5 | 0.15 | 2.31 | 1.09 | 92 | 1003.9 |
| 20260506131845 | 11 | 360 | 4.8 | 14.5 | 0.15 | 2.31 | 1.09 | 92 | 1003.8 |
| 20260506130844 | 11 | 360 | 6.4 | 16.1 | 0.15 | 2.31 | 1.07 | 93 | 1003.8 |
| 20260506125844 | 11 | 360 | 4.8 | 12.9 | 0.13 | 2.29 | 1.04 | 93 | 1003.9 |
| 20260506124844 | 11 | 360 | 3.2 | 9.7 | 0.10 | 2.24 | 0.99 | 93 | 1003.8 |
| 20260506122844 | 11 | 360 | 3.2 | 4.8 | 0.08 | 2.18 | 0.94 | 92 | 1003.7 |
| 20260506121844 | 12 | 360 | 1.6 | 4.8 | 0.08 | 2.16 | 0.91 | 93 | 1003.7 |
| 20260506120844 | 11 | 360 | 3.2 | 6.4 | 0.10 | 2.16 | 0.91 | 93 | 1003.5 |
| 20260506115844 | 11 | 360 | 1.6 | 4.8 | 0.13 | 2.16 | 0.91 | 94 | 1003.5 |
| 20260506114845 | 11 | 360 | 0.0 | 3.2 | 0.10 | 2.13 | 0.89 | 93 | 1003.5 |
| 20260506113844 | 11 | 360 | 1.6 | 4.8 | 0.08 | 2.11 | 0.89 | 94 | 1003.5 |
| 20260506112844 | 11 | 360 | 0.0 | 3.2 | 0.05 | 2.11 | 0.86 | 93 | 1003.3 |
| 20260506111843 | 11 | 360 | 1.6 | 3.2 | 0.05 | 2.08 | 0.84 | 93 | 1003.5 |
| 20260506110844 | 11 | 360 | 0.0 | 4.8 | 0.05 | 2.06 | 0.81 | 93 | 1003.5 |
| 20260506105843 | 11 | 360 | 3.2 | 8.0 | 0.05 | 2.03 | 0.79 | 92 | 1003.4 |
| 20260506104843 | 11 | 360 | 0.0 | 6.4 | 0.05 | 2.03 | 0.79 | 93 | 1003.4 |
| 20260506103843 | 12 | 360 | 4.8 | 6.4 | 0.05 | 2.03 | 0.79 | 93 | 1003.4 |
| 20260506102843 | 12 | 360 | 0.0 | 0.0 | 0.05 | 2.03 | 0.79 | 94 | 1003.3 |
| 20260506101843 | 11 | 360 | 0.0 | 0.0 | 0.05 | 2.03 | 0.79 | 94 | 1003.3 |
| 20260506100844 | 11 | 360 | 0.0 | 3.2 | 0.05 | 2.01 | 0.76 | 94 | 1003.2 |